GLOBALSTAR M097

Last updated on Sun Jun 21 2026 00:03:18 GMT+0000 (Coordinated Universal Time)

1 39072U 13005A 26171.33029461 -.00000100 00000+0 18570-4 0 9991 2 39072 52.0035 233.7699 0000225 126.8592 233.2295 12.62247330617302
UTC large
Height (km)
Speed (km/s)
/
Latitude / Longitude
Inclination (degrees)
Orbital Period (minutes)
Azimuth
Elevation
Range (km)
Doppler Factor

Next 0 passes for location: London (51.5072 / 0.1276)

No passes found over London.
GLOBALSTAR M097